Osceola, WI

3:20 PM CST on February 12, 2016 (GMT -0600)
Simenstad Municipal

Weather History for KOEO - August, 2014

Change the Weather History Date:

Sunday, August 24, 2014

  Actual Average (KMSP) Record (KMSP)
Temperature  
Mean Temperature 78 °F 70 °F  
Max Temperature 85 °F 79 °F 98 °F (1948)
Min Temperature 72 °F 61 °F 43 °F (1887)
Degree Days  
Heating Degree Days 0 1  
Month to date heating degree days 3  
Since 1 June heating degree days 52  
Since 1 July heating degree days 8  
Cooling Degree Days 13 6  
Month to date cooling degree days 170  
Year to date cooling degree days 646  
Since 1 June cooling degree days 604  
Growing Degree Days 28 (Base 50)    
Moisture  
Dew Point 74 °F    
Average Humidity 91    
Maximum Humidity 100    
Minimum Humidity 70    
Precipitation  
Precipitation 0.05 in 0.13 in 4.08 in (1893)
Month to date precipitation 3.44  
Year to date precipitation 21.31  
Snow  
Snow 0.00 in 0.00 in 0.00 in ()
Month to date snowfall 0.0  
Since 1 June snowfall 0.0  
Since 1 July snowfall 0.0  
Snow Depth -    
Sea Level Pressure  
Sea Level Pressure 29.88 in    
Wind  
Wind Speed 10 mph (SE)    
Max Wind Speed 17 mph    
Max Gust Speed 24 mph    
Visibility 9 miles    
Events Rain    
T = Trace of Precipitation, MM = Missing Value Source: NWS Daily Summary

Daily Weather History Graph

Daily Weather History Graph

Search for Another Location

Airport or City:

Trip Planner

Search our weather history database for the weather conditions in past years. The results will help you decide how hot, cold, wet, or windy it might be!

Date:

Astronomy

Aug. 24, 2014 Rise Set
Actual Time 6:22 AM CDT 8:02 PM CDT
Civil Twilight 5:51 AM CDT 8:33 PM CDT
Nautical Twilight 5:13 AM CDT 9:11 PM CDT
Astronomical Twilight 4:32 AM CDT 9:52 PM CDT
Moon 5:33 AM CDT (8/24) 7:19 PM CDT (8/24)
Length of Visible Light 14h 42m
Length of Day
13h 39m
Waning Crescent, 1% of the Moon is Illuminated
Aug 24
Waning Crescent
Aug 25
New
Sep 2
First Quarter
Sep 8
Full
Sep 15
Last Quarter

Hourly Weather History & Observations

Time (CDT) Temp. Heat Index Dew Point Humidity Pressure Visibility Wind Dir Wind Speed Gust Speed Precip Events Conditions
12:15 AM 74.8 °F - 73.8 °F 96% 29.96 in 10.0 mi SE 10.4 mph 17.3 mph N/A   Overcast
12:35 AM 74.8 °F - 73.9 °F 97% 29.96 in 7.0 mi ESE 11.5 mph 16.1 mph N/A   Overcast
12:55 AM 74.8 °F - 73.9 °F 97% 29.96 in 10.0 mi SE 8.1 mph - N/A   Overcast
1:15 AM 75.0 °F - 73.9 °F 96% 29.95 in 10.0 mi ESE 6.9 mph - N/A   Overcast
1:35 AM 75.0 °F - 73.9 °F 96% 29.94 in 10.0 mi ESE 9.2 mph - N/A   Overcast
1:55 AM 75.2 °F - 73.6 °F 95% 29.94 in 10.0 mi ESE 10.4 mph - N/A   Overcast
2:15 AM 75.0 °F - 73.6 °F 95% 29.94 in 10.0 mi ESE 11.5 mph - N/A   Overcast
2:35 AM 74.5 °F - 73.4 °F 96% 29.93 in 10.0 mi SE 10.4 mph 16.1 mph N/A   Mostly Cloudy
2:55 AM 74.3 °F - 73.4 °F 97% 29.92 in 7.0 mi ESE 11.5 mph - N/A   Overcast
3:15 AM 74.3 °F - 73.4 °F 97% 29.91 in 10.0 mi ESE 10.4 mph - N/A   Mostly Cloudy
3:35 AM 73.6 °F - 72.9 °F 98% 29.90 in 7.0 mi ESE 11.5 mph 16.1 mph N/A   Scattered Clouds
3:55 AM 73.4 °F - 72.9 °F 98% 29.90 in 7.0 mi ESE 9.2 mph - N/A   Scattered Clouds
4:15 AM 73.4 °F - 72.9 °F 98% 29.89 in 7.0 mi ESE 10.4 mph 18.4 mph N/A   Scattered Clouds
4:35 AM 73.4 °F - 72.5 °F 97% 29.88 in 7.0 mi ESE 11.5 mph 16.1 mph N/A   Mostly Cloudy
4:55 AM 73.4 °F - 72.5 °F 97% 29.88 in 10.0 mi ESE 13.8 mph 19.6 mph N/A   Overcast
5:15 AM 73.4 °F - 72.0 °F 95% 29.88 in 10.0 mi ESE 13.8 mph 18.4 mph N/A   Overcast
5:35 AM 73.4 °F - 71.6 °F 94% 29.90 in 10.0 mi SE 8.1 mph 17.3 mph N/A   Overcast
5:55 AM 72.9 °F - 71.1 °F 94% 29.90 in 10.0 mi SE 10.4 mph 18.4 mph N/A   Overcast
6:15 AM 72.9 °F - 71.1 °F 94% 29.91 in 10.0 mi SE 12.7 mph 20.7 mph N/A   Overcast
6:35 AM 72.9 °F - 71.1 °F 94% 29.92 in 10.0 mi SE 11.5 mph 18.4 mph N/A   Overcast
6:55 AM 72.5 °F - 71.6 °F 97% 29.91 in 10.0 mi SE 12.7 mph 16.1 mph 0.01 in Rain Rain
7:15 AM 72.1 °F - 71.6 °F 98% 29.92 in 10.0 mi SE 10.4 mph 18.4 mph 0.01 in   Mostly Cloudy
7:35 AM 72.1 °F - 71.6 °F 98% 29.92 in 10.0 mi SE 6.9 mph - 0.01 in   Mostly Cloudy
7:55 AM 72.5 °F - 71.6 °F 97% 29.92 in 10.0 mi South 6.9 mph - 0.01 in   Overcast
8:15 AM 72.7 °F - 71.6 °F 96% 29.91 in 10.0 mi ESE 8.1 mph - N/A   Overcast
8:35 AM 73.6 °F - 72.1 °F 95% 29.90 in 10.0 mi SE 12.7 mph 16.1 mph N/A   Overcast
8:55 AM 74.8 °F - 72.1 °F 91% 29.88 in 10.0 mi SE 13.8 mph - N/A   Overcast
9:15 AM 75.0 °F - 72.3 °F 91% 29.87 in 10.0 mi ESE 13.8 mph 23.0 mph N/A   Overcast
9:35 AM 75.4 °F - 72.1 °F 90% 29.86 in 10.0 mi SE 15.0 mph 21.9 mph N/A   Overcast
9:55 AM 75.9 °F - 72.3 °F 89% 29.86 in 10.0 mi SE 16.1 mph 24.2 mph N/A   Overcast
10:15 AM 76.8 °F - 72.7 °F 87% 29.86 in 10.0 mi SE 17.3 mph 24.2 mph N/A   Overcast
10:35 AM 76.1 °F - 72.5 °F 89% 29.86 in 10.0 mi SE 15.0 mph 23.0 mph N/A   Overcast
10:55 AM 76.1 °F - 72.7 °F 89% 29.88 in 10.0 mi SSE 13.8 mph 21.9 mph N/A   Overcast
11:15 AM 75.6 °F - 72.7 °F 91% 29.89 in 10.0 mi South 5.8 mph 17.3 mph N/A   Overcast
11:35 AM 75.2 °F - 72.9 °F 92% 29.89 in 10.0 mi SSE 9.2 mph - N/A   Overcast
11:55 AM 76.1 °F - 73.2 °F 91% 29.90 in 10.0 mi SSE 6.9 mph - N/A   Overcast
12:15 PM 76.8 °F - 73.4 °F 89% 29.89 in 10.0 mi SSE 9.2 mph - N/A   Overcast
12:35 PM 77.4 °F - 73.6 °F 88% 29.90 in 10.0 mi South 8.1 mph - N/A   Overcast
12:55 PM 78.8 °F - 73.6 °F 84% 29.90 in 10.0 mi SSE 11.5 mph 16.1 mph N/A   Overcast
1:15 PM 78.4 °F - 72.7 °F 82% 29.88 in 10.0 mi SSE 10.4 mph 20.7 mph N/A   Overcast
1:35 PM 80.8 °F 86.1 °F 74.3 °F 81% 29.88 in 10.0 mi SSE 10.4 mph - N/A   Overcast
1:55 PM 81.9 °F 87.7 °F 74.1 °F 77% 29.87 in 10.0 mi SSE 11.5 mph 18.4 mph N/A   Mostly Cloudy
2:15 PM 81.7 °F 87.1 °F 73.4 °F 76% 29.86 in 10.0 mi SSE 11.5 mph 18.4 mph N/A   Scattered Clouds
2:35 PM 82.4 °F 88.2 °F 73.4 °F 74% 29.86 in 10.0 mi SE 11.5 mph - N/A   Scattered Clouds
2:55 PM 83.3 °F 89.9 °F 73.8 °F 73% 29.86 in 10.0 mi SSE 9.2 mph 18.4 mph N/A   Mostly Cloudy
3:15 PM 84.0 °F 90.8 °F 73.6 °F 71% 29.86 in 10.0 mi SSE 12.7 mph - N/A   Scattered Clouds
3:35 PM 84.0 °F 90.8 °F 73.8 °F 71% 29.86 in 10.0 mi SE 13.8 mph - N/A   Scattered Clouds
3:55 PM 84.4 °F 91.3 °F 73.6 °F 70% 29.87 in 10.0 mi SE 10.4 mph - N/A   Scattered Clouds
4:15 PM 83.8 °F 91.8 °F 75.0 °F 75% 29.86 in 10.0 mi SE 11.5 mph - N/A   Clear
4:35 PM 82.8 °F 90.1 °F 75.4 °F 78% 29.85 in 10.0 mi ESE 10.4 mph - N/A   Clear
4:55 PM 82.6 °F 90.2 °F 75.9 °F 80% 29.84 in 10.0 mi ESE 8.1 mph - N/A   Clear
5:15 PM 83.7 °F 91.7 °F 75.6 °F 76% 29.85 in 10.0 mi SSE 10.4 mph - N/A   Scattered Clouds
5:35 PM 82.2 °F 89.9 °F 76.3 °F 82% 29.85 in 10.0 mi SE 5.8 mph - N/A   Mostly Cloudy
5:55 PM 81.5 °F 88.5 °F 76.1 °F 84% 29.83 in 10.0 mi ESE 12.7 mph - N/A   Scattered Clouds
6:15 PM 81.3 °F 88.3 °F 76.5 °F 85% 29.81 in 10.0 mi SE 11.5 mph 17.3 mph N/A   Scattered Clouds
6:35 PM 81.0 °F 87.3 °F 76.1 °F 85% 29.84 in 10.0 mi SE 9.2 mph - N/A   Clear
6:55 PM 80.4 °F 86.5 °F 76.5 °F 88% 29.83 in 7.0 mi SE 8.1 mph - N/A Rain Rain
7:15 PM 78.8 °F - 77.2 °F 95% 29.83 in 7.0 mi SSE 5.8 mph - 0.01 in Rain Light Rain
7:35 PM 78.4 °F - 77.4 °F 96% 29.84 in 10.0 mi SSE 3.5 mph - 0.01 in   Scattered Clouds
7:55 PM 77.9 °F - 77.4 °F 98% 29.84 in 7.0 mi Calm Calm - 0.01 in   Clear
8:15 PM 76.8 °F - 76.8 °F 100% 29.85 in 7.0 mi Calm Calm - N/A   Scattered Clouds
8:35 PM 75.9 °F - 75.9 °F 100% 29.85 in 5.0 mi Calm Calm - N/A   Mostly Cloudy
8:55 PM 76.3 °F - 76.3 °F 100% 29.85 in 7.0 mi Calm Calm - N/A   Scattered Clouds
9:15 PM 75.7 °F - 75.7 °F 100% 29.86 in 5.0 mi Calm Calm - N/A   Scattered Clouds
9:35 PM 76.6 °F - 76.6 °F 100% 29.86 in 10.0 mi SSE 6.9 mph - N/A   Scattered Clouds
9:55 PM 77.2 °F - 77.0 °F 99% 29.86 in 10.0 mi SW 3.5 mph - N/A   Clear
10:15 PM 76.8 °F - 76.8 °F 100% 29.86 in 10.0 mi West 16.1 mph 23.0 mph N/A   Scattered Clouds
10:35 PM 75.4 °F - 72.5 °F 91% 29.84 in 10.0 mi WSW 3.5 mph - N/A   Mostly Cloudy
10:55 PM 75.2 °F - 72.0 °F 90% 29.84 in 10.0 mi Calm Calm - N/A   Mostly Cloudy
11:15 PM 73.0 °F - 72.7 °F 99% 29.86 in 10.0 mi Calm Calm - N/A   Mostly Cloudy
11:35 PM 74.1 °F - 73.4 °F 98% 29.87 in 10.0 mi Calm Calm - N/A   Overcast
11:55 PM 75.0 °F - 73.4 °F 95% 29.89 in 10.0 mi Calm Calm - 0.02 in   Overcast